owner,sensor,date,latitude,longitude,vertical_datum,wind_speed,wind_to_direction,wind_speed_of_gust,qcFlag 
TCOON,ioos:station:TCOON:003:1,2012-03-01T00:00:00Z,26.8015,-97.4706,0.0,9.8,150.0,11.3,'1111122,1111122,1111122' 
TCOON,ioos:station:TCOON:003:1,2012-03-01T01:00:00Z,26.8015,-97.4706,0.0,8.5,145.0,10.4,'11111222,11111222,11111222' 
TCOON,ioos:station:TCOON:003:1,2012-03-01T02:00:00Z,26.8015,-97.4706,0.0,7.8,145.0,8.7,'11111222,11111222,11111222' 
TCOON,ioos:station:TCOON:003:1,2012-03-01T03:00:00Z,26.8015,-97.4706,0.0,7.7,150.0,9.3,'1111122,1111122,1111122' 
TCOON,ioos:station:TCOON:003:1,2012-03-01T04:00:00Z,26.8015,-97.4706,0.0,8.5,159.0,9.7,'11111222,11111222,11111222' 
TCOON,ioos:station:TCOON:003:1,2012-03-01T05:00:00Z,26.8015,-97.4706,0.0,8.7,175.0,10.0,'11111222,11111222,11111222' 
TCOON,ioos:station:TCOON:003:1,2012-03-01T06:00:00Z,26.8015,-97.4706,0.0,7.8,170.0,9.4,'11111222,11111222,11111222' 
TCOON,ioos:station:TCOON:003:1,2012-03-01T07:00:00Z,26.8015,-97.4706,0.0,7.1,171.0,8.3,'11111222,11111222,11111222' 
TCOON,ioos:station:TCOON:003:1,2012-03-01T08:00:00Z,26.8015,-97.4706,0.0,7.7,175.0,9.5,'11111222,11111222,11111222' 
TCOON,ioos:station:TCOON:003:1,2012-03-01T09:00:00Z,26.8015,-97.4706,0.0,7.3,181.0,8.5,'11111222,11111222,11111222' 
TCOON,ioos:station:TCOON:003:1,2012-03-01T10:00:00Z,26.8015,-97.4706,0.0,7.1,182.0,8.1,'11111222,11111222,11111222' 
TCOON,ioos:station:TCOON:003:1,2012-03-01T11:00:00Z,26.8015,-97.4706,0.0,3.5,212.0,4.0,'11111222,11111222,11111222' 
TCOON,ioos:station:TCOON:003:1,2012-03-01T12:00:00Z,26.8015,-97.4706,0.0,3.9,183.0,4.9,'11111222,11111222,11111222' 
TCOON,ioos:station:TCOON:003:1,2012-03-01T13:00:00Z,26.8015,-97.4706,0.0,5.7,180.0,6.2,'1111122,1111122,1111122' 
TCOON,ioos:station:TCOON:003:1,2012-03-01T14:00:00Z,26.8015,-97.4706,0.0,7.7,190.0,10.8,'1111122,1111122,1111122' 
TCOON,ioos:station:TCOON:003:1,2012-03-01T15:00:00Z,26.8015,-97.4706,0.0,6.1,177.0,7.9,'11111222,11111222,11111222' 
TCOON,ioos:station:TCOON:003:1,2012-03-01T16:00:00Z,26.8015,-97.4706,0.0,7.2,150.0,8.2,'1111122,1111122,1111122' 
TCOON,ioos:station:TCOON:003:1,2012-03-01T17:00:00Z,26.8015,-97.4706,0.0,8.8,150.0,10.3,'1111122,1111122,1111122' 
TCOON,ioos:station:TCOON:003:1,2012-03-01T18:00:00Z,26.8015,-97.4706,0.0,7.7,150.0,9.8,'1111122,1111122,1111122' 
TCOON,ioos:station:TCOON:003:1,2012-03-01T19:00:00Z,26.8015,-97.4706,0.0,9.8,150.0,11.8,'1111122,1111122,1111122' 
TCOON,ioos:station:TCOON:003:1,2012-03-01T20:00:00Z,26.8015,-97.4706,0.0,9.8,160.0,11.3,'1111122,1111122,1111122' 
TCOON,ioos:station:TCOON:003:1,2012-03-01T21:00:00Z,26.8015,-97.4706,0.0,11.1,154.0,13.6,'11111222,11111222,11111222' 
TCOON,ioos:station:TCOON:003:1,2012-03-01T22:00:00Z,26.8015,-97.4706,0.0,9.8,160.0,11.3,'1111122,1111122,1111122' 
TCOON,ioos:station:TCOON:003:1,2012-03-01T23:00:00Z,26.8015,-97.4706,0.0,8.2,150.0,9.8,'1111122,1111122,1111122' 
TCOON,ioos:station:TCOON:003:1,2012-03-02T00:00:00Z,26.8015,-97.4706,0.0,9.3,140.0,10.8,'1111122,1111122,1111122' 
TCOON,ioos:station:TCOON:003:1,2012-03-02T01:00:00Z,26.8015,-97.4706,0.0,9.3,140.0,10.8,'1111122,1111122,1111122' 
TCOON,ioos:station:TCOON:003:1,2012-03-02T02:00:00Z,26.8015,-97.4706,0.0,8.6,149.0,10.5,'11111222,11111222,11111222' 
TCOON,ioos:station:TCOON:003:1,2012-03-02T03:00:00Z,26.8015,-97.4706,0.0,10.5,165.0,12.8,'11111222,11111222,11111222' 
TCOON,ioos:station:TCOON:003:1,2012-03-02T04:00:00Z,26.8015,-97.4706,0.0,8.9,181.0,11.0,'11111222,11111222,11111222' 
TCOON,ioos:station:TCOON:003:1,2012-03-02T05:00:00Z,26.8015,-97.4706,0.0,8.8,175.0,10.9,'11111222,11111222,11111222' 
TCOON,ioos:station:TCOON:003:1,2012-03-02T06:00:00Z,26.8015,-97.4706,0.0,11.1,168.0,12.6,'11111222,11111222,11111222' 
TCOON,ioos:station:TCOON:003:1,2012-03-02T07:00:00Z,26.8015,-97.4706,0.0,10.7,174.0,13.2,'11111222,11111222,11111222' 
TCOON,ioos:station:TCOON:003:1,2012-03-02T08:00:00Z,26.8015,-97.4706,0.0,8.8,182.0,9.9,'11111222,11111222,11111222' 
TCOON,ioos:station:TCOON:003:1,2012-03-02T09:00:00Z,26.8015,-97.4706,0.0,9.8,180.0,11.9,'11111222,11111222,11111222' 
TCOON,ioos:station:TCOON:003:1,2012-03-02T10:00:00Z,26.8015,-97.4706,0.0,8.1,183.0,9.5,'11111222,11111222,11111222' 
TCOON,ioos:station:TCOON:003:1,2012-03-02T11:00:00Z,26.8015,-97.4706,0.0,7.7,180.0,9.8,'1111122,1111122,1111122' 
TCOON,ioos:station:TCOON:003:1,2012-03-02T12:00:00Z,26.8015,-97.4706,0.0,4.1,190.0,5.1,'1111122,1111122,1111122' 
TCOON,ioos:station:TCOON:003:1,2012-03-02T13:00:00Z,26.8015,-97.4706,0.0,4.6,180.0,5.1,'1111122,1111122,1111122' 
TCOON,ioos:station:TCOON:003:1,2012-03-02T14:00:00Z,26.8015,-97.4706,0.0,7.7,170.0,8.8,'1111122,1111122,1111122' 
TCOON,ioos:station:TCOON:003:1,2012-03-02T15:00:00Z,26.8015,-97.4706,0.0,10.8,180.0,11.8,'1111122,1111122,1111122' 
TCOON,ioos:station:TCOON:003:1,2012-03-02T16:00:00Z,26.8015,-97.4706,0.0,9.8,190.0,10.8,'1111122,1111122,1111122' 
TCOON,ioos:station:TCOON:003:1,2012-03-02T17:00:00Z,26.8015,-97.4706,0.0,8.2,210.0,11.8,'1111122,1111122,1111122' 
TCOON,ioos:station:TCOON:003:1,2012-03-02T18:00:00Z,26.8015,-97.4706,0.0,9.3,190.0,10.3,'1111122,1111122,1111122' 
TCOON,ioos:station:TCOON:003:1,2012-03-02T19:00:00Z,26.8015,-97.4706,0.0,7.7,190.0,9.8,'1111122,1111122,1111122' 
TCOON,ioos:station:TCOON:003:1,2012-03-02T20:00:00Z,26.8015,-97.4706,0.0,4.1,140.0,5.1,'1111122,1111122,1111122' 
TCOON,ioos:station:TCOON:003:1,2012-03-02T21:00:00Z,26.8015,-97.4706,0.0,8.8,130.0,10.3,'1111122,1111122,1111122' 
TCOON,ioos:station:TCOON:003:1,2012-03-02T22:00:00Z,26.8015,-97.4706,0.0,8.8,140.0,10.3,'1111122,1111122,1111122' 
TCOON,ioos:station:TCOON:003:1,2012-03-02T23:00:00Z,26.8015,-97.4706,0.0,8.3,141.0,9.7,'11111222,11111222,11111222' 
TCOON,ioos:station:TCOON:003:1,2012-03-03T00:00:00Z,26.8015,-97.4706,0.0,9.3,150.0,10.3,'1111122,1111122,1111122' 
TCOON,ioos:station:TCOON:003:1,2012-03-03T01:00:00Z,26.8015,-97.4706,0.0,7.9,147.0,10.0,'11111222,11111222,11111222' 
TCOON,ioos:station:TCOON:003:1,2012-03-03T02:00:00Z,26.8015,-97.4706,0.0,8.9,163.0,10.1,'11111222,11111222,11111222' 
TCOON,ioos:station:TCOON:003:1,2012-03-03T03:00:00Z,26.8015,-97.4706,0.0,7.2,150.0,9.3,'1111122,1111122,1111122' 
TCOON,ioos:station:TCOON:003:1,2012-03-03T04:00:00Z,26.8015,-97.4706,0.0,6.1,143.0,6.9,'11111222,11111222,11111222' 
TCOON,ioos:station:TCOON:003:1,2012-03-03T05:00:00Z,26.8015,-97.4706,0.0,7.0,180.0,7.6,'11111222,11111222,11111222' 
TCOON,ioos:station:TCOON:003:1,2012-03-03T06:00:00Z,26.8015,-97.4706,0.0,3.8,186.0,4.4,'11111222,11111222,11111222' 
TCOON,ioos:station:TCOON:003:1,2012-03-03T07:00:00Z,26.8015,-97.4706,0.0,1.5,170.0,2.1,'1111122,1111122,1111122' 
TCOON,ioos:station:TCOON:003:1,2012-03-03T08:00:00Z,26.8015,-97.4706,0.0,3.1,110.0,3.6,'1111122,1111122,1111122' 
TCOON,ioos:station:TCOON:003:1,2012-03-03T09:00:00Z,26.8015,-97.4706,0.0,2.6,20.0,2.6,'1111122,1111122,1111122' 
TCOON,ioos:station:TCOON:003:1,2012-03-03T10:00:00Z,26.8015,-97.4706,0.0,7.2,360.0,8.2,'1111122,1111122,1111122' 
TCOON,ioos:station:TCOON:003:1,2012-03-03T11:00:00Z,26.8015,-97.4706,0.0,12.4,10.0,16.0,'1111122,1111122,1111122' 
TCOON,ioos:station:TCOON:003:1,2012-03-03T12:00:00Z,26.8015,-97.4706,0.0,11.8,20.0,13.9,'1111122,1111122,1111122' 
TCOON,ioos:station:TCOON:003:1,2012-03-03T13:00:00Z,26.8015,-97.4706,0.0,14.9,10.0,19.0,'1111122,1111122,1111122' 
TCOON,ioos:station:TCOON:003:1,2012-03-03T14:00:00Z,26.8015,-97.4706,0.0,14.4,360.0,16.5,'1111122,1111122,1111122' 
TCOON,ioos:station:TCOON:003:1,2012-03-03T15:00:00Z,26.8015,-97.4706,0.0,14.4,10.0,16.5,'1111122,1111122,1111122' 
TCOON,ioos:station:TCOON:003:1,2012-03-03T16:00:00Z,26.8015,-97.4706,0.0,10.8,360.0,13.4,'1111122,1111122,1111122' 
TCOON,ioos:station:TCOON:003:1,2012-03-03T17:00:00Z,26.8015,-97.4706,0.0,10.8,340.0,12.4,'1111122,1111122,1111122' 
TCOON,ioos:station:TCOON:003:1,2012-03-03T18:00:00Z,26.8015,-97.4706,0.0,10.8,350.0,13.9,'1111122,1111122,1111122' 
TCOON,ioos:station:TCOON:003:1,2012-03-03T19:00:00Z,26.8015,-97.4706,0.0,12.9,340.0,15.4,'1111122,1111122,1111122' 
TCOON,ioos:station:TCOON:003:1,2012-03-03T20:00:00Z,26.8015,-97.4706,0.0,12.9,340.0,17.5,'1111122,1111122,1111122' 
TCOON,ioos:station:TCOON:003:1,2012-03-03T21:00:00Z,26.8015,-97.4706,0.0,11.8,330.0,14.9,'1111122,1111122,1111122' 
TCOON,ioos:station:TCOON:003:1,2012-03-03T22:00:00Z,26.8015,-97.4706,0.0,11.8,340.0,13.4,'1111122,1111122,1111122' 
TCOON,ioos:station:TCOON:003:1,2012-03-03T23:00:00Z,26.8015,-97.4706,0.0,8.2,350.0,10.3,'1111122,1111122,1111122' 
TCOON,ioos:station:TCOON:003:1,2012-03-04T00:00:00Z,26.8015,-97.4706,0.0,7.7,350.0,8.8,'1111122,1111122,1111122' 
TCOON,ioos:station:TCOON:003:1,2012-03-04T01:00:00Z,26.8015,-97.4706,0.0,6.2,10.0,7.7,'1111122,1111122,1111122' 
TCOON,ioos:station:TCOON:003:1,2012-03-04T02:00:00Z,26.8015,-97.4706,0.0,6.7,10.0,7.7,'1111122,1111122,1111122' 
TCOON,ioos:station:TCOON:003:1,2012-03-04T03:00:00Z,26.8015,-97.4706,0.0,3.6,30.0,4.6,'1111122,1111122,1111122' 
TCOON,ioos:station:TCOON:003:1,2012-03-04T04:00:00Z,26.8015,-97.4706,0.0,3.1,30.0,4.1,'1111122,1111122,1111122' 
TCOON,ioos:station:TCOON:003:1,2012-03-04T05:00:00Z,26.8015,-97.4706,0.0,3.6,40.0,4.1,'1111122,1111122,1111122' 
TCOON,ioos:station:TCOON:003:1,2012-03-04T06:00:00Z,26.8015,-97.4706,0.0,3.1,30.0,3.6,'1111122,1111122,1111122' 
TCOON,ioos:station:TCOON:003:1,2012-03-04T07:00:00Z,26.8015,-97.4706,0.0,2.3,26.0,2.7,'11111222,11111222,11111222' 
TCOON,ioos:station:TCOON:003:1,2012-03-04T08:00:00Z,26.8015,-97.4706,0.0,2.2,16.0,2.5,'11111222,11111222,11111222' 
TCOON,ioos:station:TCOON:003:1,2012-03-04T09:00:00Z,26.8015,-97.4706,0.0,2.6,277.0,3.0,'11111222,11111222,11111222' 
TCOON,ioos:station:TCOON:003:1,2012-03-04T10:00:00Z,26.8015,-97.4706,0.0,3.6,280.0,4.1,'1111122,1111122,1111122' 
TCOON,ioos:station:TCOON:003:1,2012-03-04T11:00:00Z,26.8015,-97.4706,0.0,3.6,280.0,4.3,'11111222,11111222,11111222' 
TCOON,ioos:station:TCOON:003:1,2012-03-04T12:00:00Z,26.8015,-97.4706,0.0,4.1,270.0,4.6,'1111122,1111122,1111122' 
TCOON,ioos:station:TCOON:003:1,2012-03-04T13:00:00Z,26.8015,-97.4706,0.0,3.1,270.0,4.1,'1111122,1111122,1111122' 
TCOON,ioos:station:TCOON:003:1,2012-03-04T14:00:00Z,26.8015,-97.4706,0.0,3.4,274.0,3.8,'11111222,11111222,11111222' 
TCOON,ioos:station:TCOON:003:1,2012-03-04T15:00:00Z,26.8015,-97.4706,0.0,3.6,230.0,4.6,'1111122,1111122,1111122' 
TCOON,ioos:station:TCOON:003:1,2012-03-04T16:00:00Z,26.8015,-97.4706,0.0,3.1,160.0,4.1,'1111122,1111122,1111122' 
TCOON,ioos:station:TCOON:003:1,2012-03-04T17:00:00Z,26.8015,-97.4706,0.0,4.6,126.0,5.1,'11111222,11111222,11111222' 
TCOON,ioos:station:TCOON:003:1,2012-03-04T18:00:00Z,26.8015,-97.4706,0.0,3.6,120.0,4.6,'1111122,1111122,1111122' 
TCOON,ioos:station:TCOON:003:1,2012-03-04T19:00:00Z,26.8015,-97.4706,0.0,4.1,140.0,5.7,'1111122,1111122,1111122' 
TCOON,ioos:station:TCOON:003:1,2012-03-04T20:00:00Z,26.8015,-97.4706,0.0,5.1,150.0,5.7,'1111122,1111122,1111122' 
TCOON,ioos:station:TCOON:003:1,2012-03-04T21:00:00Z,26.8015,-97.4706,0.0,6.2,130.0,7.7,'1111122,1111122,1111122' 
TCOON,ioos:station:TCOON:003:1,2012-03-04T22:00:00Z,26.8015,-97.4706,0.0,7.2,130.0,8.2,'1111122,1111122,1111122' 
TCOON,ioos:station:TCOON:003:1,2012-03-04T23:00:00Z,26.8015,-97.4706,0.0,7.2,137.0,8.0,'11111222,11111222,11111222' 
TCOON,ioos:station:TCOON:003:1,2012-03-05T00:00:00Z,26.8015,-97.4706,0.0,8.7,148.0,9.6,'11111222,11111222,11111222' 
TCOON,ioos:station:TCOON:003:1,2012-03-05T01:00:00Z,26.8015,-97.4706,0.0,7.9,149.0,9.6,'11111222,11111222,11111222' 
TCOON,ioos:station:TCOON:003:1,2012-03-05T02:00:00Z,26.8015,-97.4706,0.0,8.2,164.0,10.7,'11111222,11111222,11111222' 
TCOON,ioos:station:TCOON:003:1,2012-03-05T03:00:00Z,26.8015,-97.4706,0.0,6.7,181.0,8.0,'11111222,11111222,11111222' 
TCOON,ioos:station:TCOON:003:1,2012-03-05T04:00:00Z,26.8015,-97.4706,0.0,7.1,180.0,8.3,'11111222,11111222,11111222' 
TCOON,ioos:station:TCOON:003:1,2012-03-05T05:00:00Z,26.8015,-97.4706,0.0,6.1,175.0,7.1,'11111222,11111222,11111222' 
TCOON,ioos:station:TCOON:003:1,2012-03-05T06:00:00Z,26.8015,-97.4706,0.0,4.3,132.0,4.9,'11111222,11111222,11111222' 
TCOON,ioos:station:TCOON:003:1,2012-03-05T07:00:00Z,26.8015,-97.4706,0.0,5.5,147.0,6.7,'11111222,11111222,11111222' 
TCOON,ioos:station:TCOON:003:1,2012-03-05T08:00:00Z,26.8015,-97.4706,0.0,4.3,141.0,5.1,'11111222,11111222,11111222' 
TCOON,ioos:station:TCOON:003:1,2012-03-05T09:00:00Z,26.8015,-97.4706,0.0,4.5,144.0,5.6,'11111222,11111222,11111222' 
TCOON,ioos:station:TCOON:003:1,2012-03-05T10:00:00Z,26.8015,-97.4706,0.0,2.2,98.0,2.6,'11111222,11111222,11111222' 
TCOON,ioos:station:TCOON:003:1,2012-03-05T11:00:00Z,26.8015,-97.4706,0.0,3.2,114.0,3.9,'11111222,11111222,11111222' 
TCOON,ioos:station:TCOON:003:1,2012-03-05T12:00:00Z,26.8015,-97.4706,0.0,3.8,100.0,4.3,'11111222,11111222,11111222' 
TCOON,ioos:station:TCOON:003:1,2012-03-05T13:00:00Z,26.8015,-97.4706,0.0,3.1,102.0,3.6,'11111222,11111222,11111222' 
TCOON,ioos:station:TCOON:003:1,2012-03-05T14:00:00Z,26.8015,-97.4706,0.0,3.6,140.0,4.1,'1111122,1111122,1111122' 
TCOON,ioos:station:TCOON:003:1,2012-03-05T15:00:00Z,26.8015,-97.4706,0.0,6.9,142.0,8.1,'11111222,11111222,11111222' 
TCOON,ioos:station:TCOON:003:1,2012-03-05T16:00:00Z,26.8015,-97.4706,0.0,5.7,148.0,7.4,'11111222,11111222,11111222' 
TCOON,ioos:station:TCOON:003:1,2012-03-05T17:00:00Z,26.8015,-97.4706,0.0,6.9,143.0,8.3,'11111222,11111222,11111222' 
TCOON,ioos:station:TCOON:003:1,2012-03-05T18:00:00Z,26.8015,-97.4706,0.0,8.1,139.0,9.5,'11111222,11111222,11111222' 
TCOON,ioos:station:TCOON:003:1,2012-03-05T19:00:00Z,26.8015,-97.4706,0.0,7.9,132.0,10.3,'11111222,11111222,11111222' 
TCOON,ioos:station:TCOON:003:1,2012-03-05T20:00:00Z,26.8015,-97.4706,0.0,8.5,131.0,11.1,'11111222,11111222,11111222' 
TCOON,ioos:station:TCOON:003:1,2012-03-05T21:00:00Z,26.8015,-97.4706,0.0,8.8,130.0,10.8,'1111122,1111122,1111122' 
TCOON,ioos:station:TCOON:003:1,2012-03-05T22:00:00Z,26.8015,-97.4706,0.0,8.8,127.0,11.3,'11111222,11111222,11111222' 
TCOON,ioos:station:TCOON:003:1,2012-03-05T23:00:00Z,26.8015,-97.4706,0.0,8.7,129.0,10.2,'11111222,11111222,11111222' 
TCOON,ioos:station:TCOON:003:1,2012-03-06T00:00:00Z,26.8015,-97.4706,0.0,7.8,127.0,9.5,'11111222,11111222,11111222' 
TCOON,ioos:station:TCOON:003:1,2012-03-06T01:00:00Z,26.8015,-97.4706,0.0,7.6,127.0,9.3,'11111222,11111222,11111222' 
TCOON,ioos:station:TCOON:003:1,2012-03-06T02:00:00Z,26.8015,-97.4706,0.0,6.6,131.0,8.4,'11111222,11111222,11111222' 
TCOON,ioos:station:TCOON:003:1,2012-03-06T03:00:00Z,26.8015,-97.4706,0.0,5.6,134.0,6.9,'11111222,11111222,11111222' 
TCOON,ioos:station:TCOON:003:1,2012-03-06T04:00:00Z,26.8015,-97.4706,0.0,6.5,137.0,7.4,'11111222,11111222,11111222' 
TCOON,ioos:station:TCOON:003:1,2012-03-06T05:00:00Z,26.8015,-97.4706,0.0,6.0,129.0,7.5,'11111222,11111222,11111222' 
TCOON,ioos:station:TCOON:003:1,2012-03-06T06:00:00Z,26.8015,-97.4706,0.0,6.2,131.0,7.6,'11111222,11111222,11111222' 
TCOON,ioos:station:TCOON:003:1,2012-03-06T07:00:00Z,26.8015,-97.4706,0.0,7.3,134.0,8.5,'11111222,11111222,11111222' 
TCOON,ioos:station:TCOON:003:1,2012-03-06T08:00:00Z,26.8015,-97.4706,0.0,6.7,138.0,7.9,'11111222,11111222,11111222' 
TCOON,ioos:station:TCOON:003:1,2012-03-06T09:00:00Z,26.8015,-97.4706,0.0,6.6,138.0,7.2,'11111222,11111222,11111222' 
TCOON,ioos:station:TCOON:003:1,2012-03-06T10:00:00Z,26.8015,-97.4706,0.0,6.6,138.0,7.6,'11111222,11111222,11111222' 
TCOON,ioos:station:TCOON:003:1,2012-03-06T11:00:00Z,26.8015,-97.4706,0.0,6.7,139.0,8.1,'11111222,11111222,11111222' 
TCOON,ioos:station:TCOON:003:1,2012-03-06T12:00:00Z,26.8015,-97.4706,0.0,7.2,136.0,8.3,'11111222,11111222,11111222' 
TCOON,ioos:station:TCOON:003:1,2012-03-06T13:00:00Z,26.8015,-97.4706,0.0,6.7,138.0,7.7,'11111222,11111222,11111222' 
TCOON,ioos:station:TCOON:003:1,2012-03-06T14:00:00Z,26.8015,-97.4706,0.0,8.0,142.0,9.7,'11111222,11111222,11111222' 
TCOON,ioos:station:TCOON:003:1,2012-03-06T15:00:00Z,26.8015,-97.4706,0.0,8.5,158.0,9.4,'11111222,11111222,11111222' 
TCOON,ioos:station:TCOON:003:1,2012-03-06T16:00:00Z,26.8015,-97.4706,0.0,10.5,148.0,13.2,'11111222,11111222,11111222' 
TCOON,ioos:station:TCOON:003:1,2012-03-06T17:00:00Z,26.8015,-97.4706,0.0,11.3,155.0,13.2,'11111222,11111222,11111222' 
TCOON,ioos:station:TCOON:003:1,2012-03-06T18:00:00Z,26.8015,-97.4706,0.0,10.5,155.0,12.1,'11111222,11111222,11111222' 
TCOON,ioos:station:TCOON:003:1,2012-03-06T19:00:00Z,26.8015,-97.4706,0.0,12.7,157.0,14.5,'11111222,11111222,11111222' 
TCOON,ioos:station:TCOON:003:1,2012-03-06T20:00:00Z,26.8015,-97.4706,0.0,11.1,152.0,13.0,'11111222,11111222,11111222' 
TCOON,ioos:station:TCOON:003:1,2012-03-06T21:00:00Z,26.8015,-97.4706,0.0,12.6,137.0,15.2,'11111222,11111222,11111222' 
TCOON,ioos:station:TCOON:003:1,2012-03-06T22:00:00Z,26.8015,-97.4706,0.0,11.6,137.0,14.6,'11111222,11111222,11111222' 
TCOON,ioos:station:TCOON:003:1,2012-03-06T23:00:00Z,26.8015,-97.4706,0.0,10.9,134.0,12.7,'11111222,11111222,11111222' 
TCOON,ioos:station:TCOON:003:1,2012-03-07T00:00:00Z,26.8015,-97.4706,0.0,9.5,136.0,11.2,'11111222,11111222,11111222' 
TCOON,ioos:station:TCOON:003:1,2012-03-07T01:00:00Z,26.8015,-97.4706,0.0,10.5,136.0,13.3,'11111222,11111222,11111222' 
TCOON,ioos:station:TCOON:003:1,2012-03-07T02:00:00Z,26.8015,-97.4706,0.0,10.1,133.0,12.2,'11111222,11111222,11111222' 
TCOON,ioos:station:TCOON:003:1,2012-03-07T03:00:00Z,26.8015,-97.4706,0.0,8.4,136.0,10.6,'11111222,11111222,11111222' 
TCOON,ioos:station:TCOON:003:1,2012-03-07T04:00:00Z,26.8015,-97.4706,0.0,10.7,138.0,13.6,'11111222,11111222,11111222' 
TCOON,ioos:station:TCOON:003:1,2012-03-07T05:00:00Z,26.8015,-97.4706,0.0,10.5,137.0,12.8,'11111222,11111222,11111222' 
TCOON,ioos:station:TCOON:003:1,2012-03-07T06:00:00Z,26.8015,-97.4706,0.0,9.4,143.0,11.9,'11111222,11111222,11111222' 
TCOON,ioos:station:TCOON:003:1,2012-03-07T07:00:00Z,26.8015,-97.4706,0.0,7.6,146.0,8.9,'11111222,11111222,11111222' 
TCOON,ioos:station:TCOON:003:1,2012-03-07T08:00:00Z,26.8015,-97.4706,0.0,7.7,145.0,8.9,'11111222,11111222,11111222' 
TCOON,ioos:station:TCOON:003:1,2012-03-07T09:00:00Z,26.8015,-97.4706,0.0,7.4,145.0,8.8,'11111222,11111222,11111222' 
TCOON,ioos:station:TCOON:003:1,2012-03-07T10:00:00Z,26.8015,-97.4706,0.0,7.5,144.0,9.0,'11111222,11111222,11111222' 
TCOON,ioos:station:TCOON:003:1,2012-03-07T11:00:00Z,26.8015,-97.4706,0.0,7.4,142.0,9.6,'11111222,11111222,11111222' 
TCOON,ioos:station:TCOON:003:1,2012-03-07T12:00:00Z,26.8015,-97.4706,0.0,7.2,140.0,8.2,'1111122,1111122,1111122' 
TCOON,ioos:station:TCOON:003:1,2012-03-07T13:00:00Z,26.8015,-97.4706,0.0,7.7,150.0,9.3,'1111122,1111122,1111122' 
TCOON,ioos:station:TCOON:003:1,2012-03-07T14:00:00Z,26.8015,-97.4706,0.0,9.3,160.0,10.8,'1111122,1111122,1111122' 
TCOON,ioos:station:TCOON:003:1,2012-03-07T15:00:00Z,26.8015,-97.4706,0.0,10.8,160.0,12.4,'1111122,1111122,1111122' 
TCOON,ioos:station:TCOON:003:1,2012-03-07T16:00:00Z,26.8015,-97.4706,0.0,12.4,160.0,14.9,'1111122,1111122,1111122' 
TCOON,ioos:station:TCOON:003:1,2012-03-07T17:00:00Z,26.8015,-97.4706,0.0,12.1,153.0,15.0,'11111222,11111222,11111222' 
TCOON,ioos:station:TCOON:003:1,2012-03-07T18:00:00Z,26.8015,-97.4706,0.0,13.4,150.0,15.4,'1111122,1111122,1111122' 
TCOON,ioos:station:TCOON:003:1,2012-03-07T19:00:00Z,26.8015,-97.4706,0.0,11.8,150.0,16.0,'1111122,1111122,1111122' 
TCOON,ioos:station:TCOON:003:1,2012-03-07T20:00:00Z,26.8015,-97.4706,0.0,12.4,150.0,15.4,'1111122,1111122,1111122' 
TCOON,ioos:station:TCOON:003:1,2012-03-07T21:00:00Z,26.8015,-97.4706,0.0,12.9,160.0,15.4,'1111122,1111122,1111122' 
TCOON,ioos:station:TCOON:003:1,2012-03-07T22:00:00Z,26.8015,-97.4706,0.0,9.8,140.0,13.9,'1111122,1111122,1111122' 
TCOON,ioos:station:TCOON:003:1,2012-03-07T23:00:00Z,26.8015,-97.4706,0.0,11.3,150.0,14.4,'1111122,1111122,1111122' 
TCOON,ioos:station:TCOON:003:1,2012-03-08T00:00:00Z,26.8015,-97.4706,0.0,11.8,150.0,12.9,'1111122,1111122,1111122' 
TCOON,ioos:station:TCOON:003:1,2012-03-08T01:00:00Z,26.8015,-97.4706,0.0,9.9,152.0,13.3,'11111222,11111222,11111222' 
TCOON,ioos:station:TCOON:003:1,2012-03-08T02:00:00Z,26.8015,-97.4706,0.0,9.7,151.0,11.5,'11111222,11111222,11111222' 
TCOON,ioos:station:TCOON:003:1,2012-03-08T03:00:00Z,26.8015,-97.4706,0.0,9.3,150.0,12.9,'1111122,1111122,1111122' 
TCOON,ioos:station:TCOON:003:1,2012-03-08T04:00:00Z,26.8015,-97.4706,0.0,9.3,160.0,11.3,'1111122,1111122,1111122' 
TCOON,ioos:station:TCOON:003:1,2012-03-08T05:00:00Z,26.8015,-97.4706,0.0,10.3,170.0,11.8,'1111122,1111122,1111122' 
TCOON,ioos:station:TCOON:003:1,2012-03-08T06:00:00Z,26.8015,-97.4706,0.0,10.3,171.0,12.6,'11111222,11111222,11111222' 
TCOON,ioos:station:TCOON:003:1,2012-03-08T07:00:00Z,26.8015,-97.4706,0.0,9.1,168.0,11.0,'11111222,11111222,11111222' 
TCOON,ioos:station:TCOON:003:1,2012-03-08T08:00:00Z,26.8015,-97.4706,0.0,10.8,170.0,13.9,'1111122,1111122,1111122' 
TCOON,ioos:station:TCOON:003:1,2012-03-08T09:00:00Z,26.8015,-97.4706,0.0,13.2,154.0,15.3,'11111222,11111222,11111222' 
TCOON,ioos:station:TCOON:003:1,2012-03-08T10:00:00Z,26.8015,-97.4706,0.0,11.6,148.0,14.8,'11111222,11111222,11111222' 
TCOON,ioos:station:TCOON:003:1,2012-03-08T11:00:00Z,26.8015,-97.4706,0.0,12.9,160.0,14.9,'1111122,1111122,1111122' 
TCOON,ioos:station:TCOON:003:1,2012-03-08T12:00:00Z,26.8015,-97.4706,0.0,11.7,160.0,13.3,'11111222,11111222,11111222' 
TCOON,ioos:station:TCOON:003:1,2012-03-08T13:00:00Z,26.8015,-97.4706,0.0,9.8,160.0,11.8,'1111122,1111122,1111122' 
TCOON,ioos:station:TCOON:003:1,2012-03-08T14:00:00Z,26.8015,-97.4706,0.0,10.8,150.0,13.4,'1111122,1111122,1111122' 
TCOON,ioos:station:TCOON:003:1,2012-03-08T15:00:00Z,26.8015,-97.4706,0.0,10.3,150.0,12.4,'1111122,1111122,1111122' 
TCOON,ioos:station:TCOON:003:1,2012-03-08T16:00:00Z,26.8015,-97.4706,0.0,9.8,160.0,12.4,'1111122,1111122,1111122' 
TCOON,ioos:station:TCOON:003:1,2012-03-08T17:00:00Z,26.8015,-97.4706,0.0,11.8,150.0,14.4,'1111122,1111122,1111122' 
TCOON,ioos:station:TCOON:003:1,2012-03-08T18:00:00Z,26.8015,-97.4706,0.0,12.4,150.0,14.9,'1111122,1111122,1111122' 
TCOON,ioos:station:TCOON:003:1,2012-03-08T19:00:00Z,26.8015,-97.4706,0.0,10.5,149.0,13.2,'11111222,11111222,11111222' 
TCOON,ioos:station:TCOON:003:1,2012-03-08T20:00:00Z,26.8015,-97.4706,0.0,13.3,148.0,15.3,'11111222,11111222,11111222' 
TCOON,ioos:station:TCOON:003:1,2012-03-08T21:00:00Z,26.8015,-97.4706,0.0,12.1,141.0,13.7,'11111222,11111222,11111222' 
TCOON,ioos:station:TCOON:003:1,2012-03-08T22:00:00Z,26.8015,-97.4706,0.0,10.9,143.0,13.1,'11111222,11111222,11111222' 
TCOON,ioos:station:TCOON:003:1,2012-03-08T23:00:00Z,26.8015,-97.4706,0.0,10.1,142.0,12.1,'11111222,11111222,11111222' 
TCOON,ioos:station:TCOON:003:1,2012-03-09T00:00:00Z,26.8015,-97.4706,0.0,10.1,143.0,11.9,'11111222,11111222,11111222' 
TCOON,ioos:station:TCOON:003:1,2012-03-09T01:00:00Z,26.8015,-97.4706,0.0,9.8,143.0,11.1,'11111222,11111222,11111222' 
TCOON,ioos:station:TCOON:003:1,2012-03-09T02:00:00Z,26.8015,-97.4706,0.0,8.0,141.0,9.3,'11111222,11111222,11111222' 
TCOON,ioos:station:TCOON:003:1,2012-03-09T03:00:00Z,26.8015,-97.4706,0.0,8.1,148.0,9.7,'11111222,11111222,11111222' 
TCOON,ioos:station:TCOON:003:1,2012-03-09T04:00:00Z,26.8015,-97.4706,0.0,3.8,113.0,5.3,'11111222,11111222,11111222' 
TCOON,ioos:station:TCOON:003:1,2012-03-09T05:00:00Z,26.8015,-97.4706,0.0,3.5,70.0,4.5,'11111222,11111222,11111222' 
TCOON,ioos:station:TCOON:003:1,2012-03-09T06:00:00Z,26.8015,-97.4706,0.0,4.5,88.0,5.6,'11111222,11111222,11111222' 
TCOON,ioos:station:TCOON:003:1,2012-03-09T07:00:00Z,26.8015,-97.4706,0.0,4.4,77.0,5.4,'11111222,11111222,11111222' 
TCOON,ioos:station:TCOON:003:1,2012-03-09T08:00:00Z,26.8015,-97.4706,0.0,4.8,100.0,5.9,'11111222,11111222,11111222' 
TCOON,ioos:station:TCOON:003:1,2012-03-09T09:00:00Z,26.8015,-97.4706,0.0,3.6,81.0,4.8,'11111222,11111222,11111222' 
TCOON,ioos:station:TCOON:003:1,2012-03-09T10:00:00Z,26.8015,-97.4706,0.0,11.2,338.0,15.3,'11111222,11111222,11111222' 
TCOON,ioos:station:TCOON:003:1,2012-03-09T11:00:00Z,26.8015,-97.4706,0.0,12.1,343.0,14.3,'11111222,11111222,11111222' 
TCOON,ioos:station:TCOON:003:1,2012-03-09T12:00:00Z,26.8015,-97.4706,0.0,10.9,330.0,12.6,'11111222,11111222,11111222' 